If you wish to contribute or participate in the discussions about articles you are invited to join SKYbrary as a registered user

 Actions

Anaktuvuk Pass Airport

From SKYbrary Wiki

PAKP
Airport
ICAO: PAKP – IATA: AKP
Summary
Name Anaktuvuk Pass Airport
Region North America
Territory Alaska US.gif
Location Anaktuvuk Pass, Alaska
Serving Anaktuvuk Pass
Elevation 640.69 m <br />2,102 ft <br />2,102 ft640.69 m <br />
Type medium airport
Coordinates 68° 8' 0.96" N, 151° 44' 34.80" W
Runways
Designator Length Width Surface ROPS
2/20 1463 m4,799.869 ft <br /> 30 m98.425 ft <br /> GRAVEL-G /


METAR
Observation PAKP 151456Z AUTO 05008KT 7SM -SN FEW004 BKN028 OVC033 M14/M17 A2960 RMK AO2 SLP089 P0000 60000 T11441167 52006 FZRANO
Station Anaktuvuk Pass, Anaktuvuk Pass Airport
Date/Time 15 October 2021 14:56:00
Wind direction 50°
Wind speed 08 kts
Lowest cloud amount few clouds
Temperature
Dew point
Humidity 82%
QNH hPa
Weather condition light snow

Maps

Terrain

Loading map...

Airport Layout

Loading map...


Accidents & Serious Incidents at or in vicinity of PAKP

None on SKYbrary